TIME,DELAY(SENSOR),PRES,OXYGEN,RAWTEMP,T(OPTODE),TCPHASE,FLUOR,BETA(BETA700),BETA(BETA412),BETA(BETA440),CDOM,C(CSC),ED(ED411.90),ED(ED443.80),ED(ED489.40),ED(ED554.70),LU(LU412.20),LU(LU443.80),LU(LU489.40),LU(LU555.00),COMP,TILTX,TILTY,CHECK
1366152035,5804,886.9799804687500000,175.2680969238281200,470.3906860351562500,8.4452791213989260,39.0167808532714840,52,103,97,79,80,11356,2146958262,2147518317,2147293110,2147505097,2147083565,2146927222,2147710180,2147121481,2316,-1,8,49192
1366155631,5807,988.0599975585938000,220.6233978271484400,529.5050048828125000,6.6111221313476560,37.2089118957519500,52,103,97,78,82,11352,2146963712,2147519341,2147297197,2147517248,2147085083,2146924626,2147723867,2147118966,3063,-1,8,28084
1366159231,5807,1016.0999755859375000,231.0050964355468800,538.4987182617188000,6.3299331665039060,36.8033981323242200,52,101,98,81,82,11350,2146963117,2147520356,2147296182,2147518939,2147085257,2146920932,2147724489,2147117851,200,0,8,31788
1366162831,5807,1021.8800048828125000,233.1372985839843800,539.3270874023438000,6.3040008544921875,36.7049598693847660,52,105,97,80,81,11348,2146960877,2147521499,2147299922,2147519360,2147086674,2146921170,2147727963,2147121883,328,0,8,27310
1366166431,5806,1022.7700195312500000,233.9393005371093800,540.9859008789062000,6.2520618438720700,36.6931190490722660,51,100,97,79,80,11335,2146961965,2147516790,2147296448,2147517814,2147087634,2146919542,2147724662,2147119954,3277,-1,8,2695
1366170031,5807,1019.2399902343750000,233.4506988525390600,540.9940795898438000,6.2518057823181150,36.7190589904785160,52,103,97,79,82,11337,2146961545,2147518802,2147298870,2147519296,2147086866,2146921737,2147723145,2147122733,3297,0,8,20022
1366173631,5807,1021.8800048828125000,230.4132995605468800,543.1179809570312000,6.1852722167968750,36.9185905456543000,51,104,100,80,82,11334,2146963949,2147522020,2147297078,2147516699,2147086098,2146923318,2147725787,2147119350,676,-1,8,28759
1366177231,5808,1025.8900146484375000,230.7075042724609400,542.9713134765625000,6.1898689270019530,36.9000701904296900,52,102,99,77,80,11331,2146962404,2147521371,2147295469,2147519826,2147086509,2146921856,2147724809,2147119067,149,-1,8,21682
1366180831,5805,1023.5999755859375000,235.9629974365234400,542.9340820312500000,6.1910338401794430,36.6220817565918000,52,101,99,79,81,11334,2146959524,2147520374,2147295936,2147517248,2147083648,2146922496,2147726994,2147121545,2518,0,8,46488
1366184431,5807,1023.2500000000000000,237.4443054199218800,544.5402832031250000,6.1406970024108890,36.5741081237793000,52,102,97,82,80,11334,2146964233,2147521517,2147298176,2147517714,2147086555,2146922230,2147728036,2147121691,2995,-1,8,35836
1366188031,5806,1022.8400268554688000,237.6784973144531200,545.4100952148438000,6.1134300231933590,36.5776901245117200,52,101,98,78,81,11333,2146961499,2147518308,2147298258,2147518930,2147084681,2146921106,2147721078,2147120073,3218,0,8,63300
1366191631,5805,1025.1800537109375000,238.3789978027343800,545.0045166015625000,6.1261458396911620,36.5343208312988300,52,102,97,78,81,11332,2146963977,2147519488,2147298706,2147518464,2147087049,2146922432,2147727094,2147121472,3260,0,8,44278
1366195231,5803,1028.9100341796875000,241.2351989746093800,546.4072875976562000,6.0821609497070310,36.4127883911132800,52,104,97,79,80,11336,2146963090,2147520914,2147297362,2147518573,2147085074,2146923776,2147725824,2147118948,3107,-1,8,10019
1366198831,5809,1026.1199951171875000,241.1159057617187500,546.4180297851562000,6.0818247795104980,36.4194602966308600,52,103,98,79,81,11335,2146962669,2147520987,2147295808,2147517202,2147086162,2146917531,2147727414,2147121088,228,-1,8,61368
1366202431,5808,1024.5200195312500000,241.8081970214843800,547.0982055664062000,6.0604920387268070,36.3968696594238300,52,106,98,79,81,11331,2146958610,2147517760,2147298669,2147518985,2147087515,2146920941,2147728429,2147121993,508,0,8,50118
1366206031,5809,1027.8000488281250000,242.1318969726562500,547.4500122070312000,6.0494580268859860,36.3863716125488300,51,105,98,79,80,11329,2146964187,2147520987,2147300214,2147519140,2147083712,2146920219,2147727945,2147122477,425,0,8,55182
1366209631,5809,1035.5799560546875000,242.0717010498047000,546.5349731445312000,6.0781569480896000,36.3730201721191400,52,103,98,79,81,11330,2146958573,2147518308,2147299291,2147519661,2147083346,2146923264,2147731419,2147121782,491,-1,8,22058
1366213231,5806,1030.2399902343750000,237.6315002441406200,545.7501831054688000,6.1027641296386720,36.5866584777832000,51,104,98,79,81,11330,2146961024,2147518098,2147299510,2147520155,2147083922,2146930532,2147725604,2147118902,205,-1,8,10724
1366216831,5808,1032.8599853515625000,239.4067993164062500,545.8767700195312000,6.0987949371337890,36.4973106384277340,52,144,97,79,81,11330,2146964306,2147519332,2147300836,2147517083,2147085577,2146924800,2147726921,2147120320,168,0,8,38924
1366220431,5804,1023.7299804687500000,236.5726928710937500,541.8745727539062000,6.2242279052734375,36.5711898803710940,52,104,98,78,81,11327,2146965522,2147513984,2147295643,2147520566,2147086418,2146920905,2147726646,2147119789,3159,-1,8,33514
1366224031,5804,1018.8400268554688000,238.8791961669922000,544.2250976562500000,6.1505761146545410,36.4940605163574200,52,105,99,79,79,11327,2146962112,2147521179,2147299520,2147516598,2147084480,2146921389,2147725604,2147119021,1086,-1,8,38373
1366227631,5803,1014.5499877929688000,239.0345001220703000,545.5258178710938000,6.1097998619079590,36.5099906921386700,52,103,97,78,80,11327,2146960630,2147517467,2147296045,2147518601,2147086125,2146917970,2147724032,2147118299,1678,0,8,14660
1366231231,5807,1017.4199829101562000,237.5487060546875000,545.2482299804688000,6.1185050010681150,36.5814781188964840,53,104,97,79,80,11322,2146960795,2147517842,2147297289,2147516827,2147089316,2146918957,2147729572,2147118747,123,-1,8,56394
1366234831,5808,1021.0399780273438000,235.4017944335937500,545.5795898437500000,6.1081161499023440,36.6990699768066400,51,103,99,80,80,11326,2146960384,2147517010,2147299638,2147516992,2147084635,2146923785,2147724644,2147118436,287,0,8,61175
1366238431,5805,1019.5100097656250000,235.8889007568359400,545.6143188476562000,6.1070270538330080,36.6747207641601560,52,102,97,80,80,11324,2146961353,2147517339,2147302390,2147517339,2147087104,2146918262,2147724022,2147120612,3470,-1,8,20917
1366242031,5808,1020.0200195312500000,236.7313995361328000,545.5623779296875000,6.1086540222167970,36.6298217773437500,52,103,98,80,80,11323,2146956964,2147520612,2147298349,2147520018,2147084699,2146921097,2147725714,2147121289,238,0,8,39219
1366245631,5807,1014.1699829101562000,239.8625030517578000,547.2694091796875000,6.0551218986511230,36.4990005493164060,52,102,98,78,81,11325,2146959076,2147517211,2147300260,2147520347,2147084918,2146920448,2147726354,2147117897,240,0,8,2809
1366249231,5808,1014.2000122070312000,241.9071044921875000,547.5241699218750000,6.0471291542053220,36.3988494873046900,53,103,97,97,81,11325,2146961965,2147518070,2147297517,2147518107,2147087926,2146918464,2147723830,2147118628,386,0,8,17679
1366252831,5808,1016.5999755859375000,239.7778930664062500,548.0440063476562000,6.0308232307434080,36.5173797607421900,52,104,98,80,81,11318,2146963245,2147521389,2147299529,2147518244,2147084187,2146922633,2147728694,2147116800,563,0,8,28448
1366256431,5809,1017.4799804687500000,241.1730957031250000,547.4838256835938000,6.0483970642089840,36.4357681274414060,51,101,97,79,80,11321,2146964214,2147518811,2147300955,2147518372,2147088585,2146923035,2147726016,2147120393,134,0,8,13044
1366260031,5809,1019.7100219726562000,239.2872924804687500,546.6027221679688000,6.0760331153869630,36.5166397094726560,52,102,99,79,80,11323,2146963090,2147519222,2147298176,2147518985,2147085906,2146920292,2147727168,2147121078,2723,0,8,19807
1366263631,5807,1024.6700439453125000,239.8515014648437500,546.2205200195312000,6.0880179405212400,36.4806594848632800,51,103,98,79,80,11317,2146962569,2147520512,2147297984,2147520594,2147088859,2146920923,2147727643,2147119716,448,0,8,17006
1366267231,5809,1014.2999877929688000,241.1110992431640600,547.7739868164062000,6.0392909049987790,36.4446296691894500,52,103,98,80,81,11320,2146960073,2147521536,2147295680,2147519835,2147085366,2146921024,2147725888,2147118646,3571,-1,8,58241
1366270831,5806,1012.1599731445312000,244.2088012695312500,550.3906250000000000,5.9571838378906250,36.3345298767089840,52,107,96,78,80,11325,2146960941,2147517412,2147296905,2147518317,2147086262,2146924205,2147730148,2147119369,3111,-1,8,32810
1366274431,5803,1015.3200073242188000,243.2100067138672000,548.8828735351562000,6.0045008659362790,36.3576393127441400,52,102,97,80,80,11318,2146959049,2147518592,2147300315,2147521133,2147089581,2146920521,2147729664,2147121572,3356,0,8,48704
1366278031,5807,1016.2399902343750000,245.7957000732422000,550.3806762695312000,5.9574928283691410,36.2549285888671900,53,100,97,79,81,11320,2146960329,2147518619,2147300416,2147521033,2147085403,2146920182,2147728841,2147118948,59,-1,8,3579
1366281631,5808,1017.0999755859375000,246.4992980957031200,551.4572753906250000,5.9236931800842285,36.2394790649414060,52,105,98,78,80,11322,2146962816,2147520950,2147300370,2147517833,2147087680,2146916352,2147729746,2147120429,179,0,8,40414
1366285231,5810,1016.0000000000000000,244.7622070312500000,551.1627807617188000,5.9329380989074710,36.3211708068847660,53,105,98,79,80,11319,2146964077,2147522742,2147298294,2147520484,2147087030,2146925257,2147728475,2147121755,29,0,8,4523
1366288831,5806,1018.7800292968750000,243.2254028320312500,549.5640869140625000,5.9831261634826660,36.3694610595703100,52,102,98,78,80,11323,2146961453,2147518116,2147298422,2147520950,2147087597,2146924242,2147726308,2147122541,353,0,8,64841
1366292431,5806,1020.1900024414062000,241.8715972900390600,548.2313842773438000,6.0249438285827640,36.4137992858886700,53,106,97,79,80,11323,2146960905,2147518144,2147298441,2147522249,2147087616,2146920228,2147727424,2147119634,921,0,8,18842
1366295755,5807,1016.0000000000000000,243.3368988037109400,549.8707275390625000,5.9735012054443360,36.3694915771484400,52,104,98,80,80,11337,2146961133,2147519378,2147297737,2147520649,2147085897,2146918628,2147726034,2147117641,153,0,8,34525
